KD0ISH Weather Reports


time (UTC)temp
C
wind
direction
speed
KPH
gust
KPH
rain 1hr
cm
rain 24hr
cm
rain mn
cm
humidity
%
barometer
mb
20260507135132 12 216 3.2 3.2 0.00 0.00 0.00 60 1019.8
20260507134628 12 225 4.8 4.8 0.00 0.00 0.00 61 1020.0
20260507134124 12 244 4.8 4.8 0.00 0.00 0.00 61 1019.8
20260507133620 12 224 1.6 1.6 0.00 0.00 0.00 61 1019.9
20260507133118 12 216 3.2 3.2 0.00 0.00 0.00 61 1019.9
20260507132615 12 226 3.2 3.2 0.00 0.00 0.00 62 1019.8
20260507132111 11 228 3.2 3.2 0.00 0.00 0.00 64 1019.7
20260507131608 11 203 4.8 4.8 0.00 0.00 0.00 64 1020.0
20260507131105 11 238 3.2 3.2 0.00 0.00 0.00 65 1020.0
20260507130602 11 220 3.2 4.8 0.00 0.00 0.00 68 1020.0
20260507130100 11 210 3.2 3.2 0.00 0.00 0.00 68 1019.9
20260507125559 10 231 1.6 1.6 0.00 0.00 0.00 69 1020.0
20260507125055 10 220 3.2 3.2 0.00 0.00 0.00 69 1019.9
20260507124552 10 240 1.6 1.6 0.00 0.00 0.00 71 1019.8
20260507124050 9 232 1.6 3.2 0.00 0.00 0.00 72 1019.9
20260507123547 9 216 1.6 1.6 0.00 0.00 0.00 73 1020.0
20260507123044 8 229 1.6 1.6 0.00 0.00 0.00 73 1019.9
20260507122539 8 237 3.2 3.2 0.00 0.00 0.00 74 1020.1
20260507122035 8 226 3.2 3.2 0.00 0.00 0.00 74 1019.8
20260507121531 8 232 1.6 3.2 0.00 0.00 0.00 76 1019.8
20260507121027 7 238 3.2 3.2 0.00 0.00 0.00 77 1019.7
20260507120524 7 240 1.6 1.6 0.00 0.00 0.00 79 1019.6
20260507120021 7 244 1.6 1.6 0.00 0.00 0.00 80 1019.5
20260507115517 7 241 0.0 0.0 0.00 0.00 0.00 81 1019.4
20260507115013 7 243 1.6 1.6 0.00 0.00 0.00 82 1019.7
20260507114509 7 249 1.6 1.6 0.00 0.00 0.00 85 1019.7
20260507114006 6 243 0.0 1.6 0.00 0.00 0.00 87 1019.5
20260507113503 6 241 0.0 0.0 0.00 0.00 0.00 88 1019.6
20260507113001 6 241 0.0 0.0 0.00 0.00 0.00 89 1019.6
20260507112458 6 241 0.0 0.0 0.00 0.00 0.00 90 1019.5
20260507111955 6 241 0.0 0.0 0.00 0.00 0.00 90 1019.6
20260507111452 6 241 0.0 0.0 0.00 0.00 0.00 90 1019.4
20260507110948 6 241 0.0 0.0 0.00 0.00 0.00 90 1019.6
20260507110444 6 240 0.0 0.0 0.00 0.00 0.00 90 1019.4
20260507105941 6 241 0.0 0.0 0.00 0.00 0.00 90 1019.6
20260507105438 6 240 0.0 0.0 0.00 0.00 0.00 90 1019.3
20260507104935 6 240 0.0 0.0 0.00 0.00 0.00 90 1019.3
20260507104432 6 240 0.0 0.0 0.00 0.00 0.00 91 1019.1
20260507103927 6 240 0.0 0.0 0.00 0.00 0.00 91 1019.1
20260507103424 6 240 0.0 0.0 0.00 0.00 0.00 91 1019.2
20260507102920 6 240 0.0 0.0 0.00 0.00 0.00 91 1019.1
20260507102417 6 240 0.0 0.0 0.00 0.00 0.00 91 1019.3
20260507101913 6 240 0.0 0.0 0.00 0.00 0.00 90 1019.3
20260507101409 6 240 0.0 0.0 0.00 0.00 0.00 90 1019.4
20260507100905 6 240 0.0 0.0 0.00 0.00 0.00 90 1019.3
20260507100403 6 241 0.0 0.0 0.00 0.00 0.00 91 1019.3
20260507095901 6 245 0.0 0.0 0.00 0.00 0.00 92 1019.2
20260507095357 6 246 0.0 1.6 0.00 0.00 0.00 92 1019.1
20260507094855 6 247 0.0 0.0 0.00 0.00 0.00 94 1019.3
20260507094351 6 250 1.6 1.6 0.00 0.00 0.00 95 1019.4
20260507093848 6 240 0.0 1.6 0.00 0.00 0.00 96 1019.4
20260507093346 6 234 0.0 0.0 0.00 0.00 0.00 96 1019.2
20260507092844 6 241 1.6 3.2 0.00 0.00 0.00 97 1019.3
20260507092340 6 247 1.6 1.6 0.00 0.00 0.00 97 1019.2
20260507091837 6 246 1.6 1.6 0.00 0.00 0.00 97 1019.2
20260507091333 6 240 0.0 0.0 0.00 0.00 0.00 97 1019.4
20260507090829 6 239 1.6 1.6 0.00 0.00 0.00 97 1019.5
20260507090325 6 242 1.6 1.6 0.00 0.00 0.00 97 1019.3
20260507085823 5 248 1.6 1.6 0.00 0.00 0.00 97 1019.3
20260507085319 5 236 0.0 0.0 0.00 0.00 0.00 97 1018.9
20260507084817 5 234 0.0 0.0 0.00 0.00 0.00 97 1018.9
20260507084313 5 245 0.0 0.0 0.00 0.00 0.00 97 1019.1
20260507083811 4 244 0.0 0.0 0.00 0.00 0.00 97 1019.0
20260507083307 4 240 0.0 0.0 0.00 0.00 0.00 96 1019.0
20260507082803 5 240 0.0 0.0 0.00 0.00 0.00 97 1019.0
20260507082259 4 241 0.0 0.0 0.00 0.00 0.00 97 1019.2
20260507081756 3 241 0.0 0.0 0.00 0.00 0.00 96 1019.2
20260507081252 3 240 0.0 0.0 0.00 0.00 0.00 96 1019.2
20260507080749 3 239 0.0 0.0 0.00 0.00 0.00 96 1019.2
20260507080245 3 240 0.0 0.0 0.00 0.00 0.00 96 1019.1
20260507075740 3 239 0.0 0.0 0.00 0.00 0.00 95 1019.2
20260507075237 3 240 0.0 0.0 0.00 0.00 0.00 95 1019.0
20260507074733 3 240 0.0 0.0 0.00 0.00 0.00 95 1019.2
20260507074232 3 240 0.0 0.0 0.00 0.00 0.00 95 1019.0
20260507073728 3 240 0.0 0.0 0.00 0.00 0.00 95 1019.4
20260507073224 3 240 0.0 0.0 0.00 0.00 0.00 95 1019.4
20260507072722 4 240 0.0 0.0 0.00 0.00 0.00 95 1019.3
20260507072219 4 240 0.0 0.0 0.00 0.00 0.00 95 1019.4
20260507071717 4 241 0.0 0.0 0.00 0.00 0.00 95 1019.6
20260507071213 4 240 0.0 0.0 0.00 0.00 0.00 95 1019.7
20260507070710 3 240 0.0 0.0 0.00 0.00 0.00 95 1019.9
20260507070207 4 240 0.0 0.0 0.00 0.00 0.00 95 1019.9
20260507065703 3 243 0.0 0.0 0.00 0.00 0.00 95 1020.0
20260507065200 4 243 0.0 0.0 0.00 0.00 0.00 95 1019.8
20260507064658 4 243 0.0 0.0 0.00 0.00 0.00 95 1020.0
20260507064156 4 244 0.0 0.0 0.00 0.00 0.00 95 1020.1
20260507063654 4 245 0.0 0.0 0.00 0.00 0.00 95 1019.9
20260507063150 4 240 0.0 0.0 0.00 0.00 0.00 95 1019.9
20260507062647 3 240 0.0 0.0 0.00 0.00 0.00 94 1019.9
20260507062145 4 240 0.0 0.0 0.00 0.00 0.00 94 1019.8
20260507061642 4 240 0.0 0.0 0.00 0.00 0.00 94 1019.9
20260507061140 4 240 0.0 0.0 0.00 0.00 0.00 94 1019.9
20260507060638 4 240 0.0 0.0 0.00 0.00 0.00 94 1020.1
20260507060134 4 240 0.0 0.0 0.00 0.00 0.00 94 1020.0
20260507055630 4 241 0.0 0.0 0.00 0.00 0.00 93 1020.1
20260507055126 4 240 0.0 0.0 0.00 0.00 0.00 93 1019.8
20260507054622 5 239 0.0 0.0 0.00 0.00 0.00 93 1019.9
20260507054119 5 240 0.0 0.0 0.00 0.00 0.00 93 1019.9
20260507053617 5 240 0.0 0.0 0.00 0.00 0.00 92 1020.0
20260507053115 5 241 0.0 0.0 0.00 0.00 0.00 93 1019.9
20260507052613 5 240 0.0 0.0 0.00 0.00 0.00 92 1019.9
20260507052109 5 240 0.0 0.0 0.00 0.00 0.00 92 1020.0
20260507051607 5 240 0.0 0.0 0.00 0.00 0.00 92 1019.9
20260507051103 5 240 0.0 0.0 0.00 0.00 0.00 92 1019.8
20260507050600 5 241 0.0 0.0 0.00 0.00 0.00 92 1020.0
20260507050057 5 241 0.0 0.0 0.00 0.00 0.00 92 1020.0
20260507045553 5 242 0.0 0.0 0.00 0.00 0.00 91 1019.8
20260507045051 5 242 0.0 0.0 0.00 0.00 0.00 92 1019.9
20260507044547 5 242 0.0 0.0 0.00 0.00 0.00 91 1019.7
20260507044044 5 242 0.0 0.0 0.00 0.00 0.00 91 1019.9
20260507043540 5 242 0.0 0.0 0.00 0.00 0.00 91 1019.7
20260507043038 6 242 0.0 0.0 0.00 0.00 0.00 91 1019.7
20260507042533 6 242 0.0 0.0 0.00 0.00 0.00 91 1019.9
20260507042029 6 242 0.0 0.0 0.00 0.00 0.00 90 1019.8
20260507041526 6 241 0.0 0.0 0.00 0.00 0.00 90 1019.8
20260507041023 6 241 0.0 0.0 0.00 0.00 0.00 89 1019.9
20260507040519 6 241 0.0 0.0 0.00 0.00 0.00 89 1019.6
20260507040015 6 241 0.0 0.0 0.00 0.00 0.00 88 1019.6
20260507035512 6 241 0.0 0.0 0.00 0.00 0.00 88 1019.8
20260507035008 6 241 0.0 0.0 0.00 0.00 0.00 87 1019.7
20260507034505 6 241 0.0 0.0 0.00 0.00 0.00 87 1019.8
20260507034003 6 240 0.0 0.0 0.00 0.00 0.00 86 1019.7
20260507033501 6 240 0.0 0.0 0.00 0.00 0.00 85 1019.8
20260507032958 6 241 0.0 0.0 0.00 0.00 0.00 84 1019.8
20260507032455 6 241 0.0 0.0 0.00 0.00 0.00 84 1019.8
20260507031950 6 241 0.0 0.0 0.00 0.00 0.00 84 1019.8
20260507031447 7 241 0.0 0.0 0.00 0.00 0.00 83 1019.8
20260507030944 7 241 0.0 0.0 0.00 0.00 0.00 83 1019.8
20260507030441 7 241 0.0 0.0 0.00 0.00 0.00 82 1019.8
20260507025938 7 241 0.0 0.0 0.00 0.00 0.00 81 1019.9
20260507025436 7 241 0.0 0.0 0.00 0.00 0.00 82 1019.7
20260507024933 7 241 0.0 0.0 0.00 0.00 0.00 82 1019.7
20260507024431 7 241 0.0 0.0 0.00 0.00 0.00 80 1019.6
20260507023926 7 241 0.0 0.0 0.00 0.00 0.00 78 1019.6
20260507023423 8 241 0.0 1.6 0.00 0.00 0.00 78 1019.8
20260507022920 8 240 0.0 1.6 0.00 0.00 0.00 77 1019.5
20260507022417 8 240 0.0 0.0 0.00 0.00 0.00 75 1019.5
20260507021913 8 240 0.0 0.0 0.00 0.00 0.00 74 1019.4
20260507021408 8 240 0.0 0.0 0.00 0.00 0.00 70 1019.3
20260507020906 8 240 0.0 0.0 0.00 0.00 0.00 69 1019.2
20260507020403 8 240 0.0 0.0 0.00 0.00 0.00 70 1019.1
20260507015900 9 240 0.0 0.0 0.00 0.00 0.00 69 1019.1
20260507015358 9 240 0.0 0.0 0.00 0.00 0.00 67 1019.0
20260507014854 10 240 0.0 0.0 0.00 0.00 0.00 61 1018.9
20260507014350 10 240 0.0 0.0 0.00 0.00 0.00 60 1019.1
20260507013847 10 240 0.0 0.0 0.00 0.00 0.00 58 1018.8
20260507013344 11 240 0.0 0.0 0.00 0.00 0.00 58 1018.6
20260507012842 11 240 0.0 0.0 0.00 0.00 0.00 57 1018.7
20260507012338 11 240 0.0 0.0 0.00 0.00 0.00 57 1018.9
20260507011835 11 239 0.0 0.0 0.00 0.00 0.00 56 1018.9
20260507011332 11 239 0.0 0.0 0.00 0.00 0.00 55 1018.7
20260507010832 12 239 0.0 0.0 0.00 0.00 0.00 54 1018.7
20260507010328 12 235 0.0 0.0 0.00 0.00 0.00 53 1018.7
20260507005825 12 219 0.0 0.0 0.00 0.00 0.00 53 1018.7
20260507005321 12 228 0.0 1.6 0.00 0.00 0.00 52 1018.6
20260507004813 13 236 0.0 0.0 0.00 0.00 0.00 52 1018.7
20260507004310 13 253 0.0 0.0 0.00 0.00 0.00 51 1018.5
20260507003807 13 5 1.6 1.6 0.00 0.00 0.00 50 1018.3
20260507003302 13 239 0.0 1.6 0.00 0.00 0.00 51 1018.2
20260507002758 13 243 0.0 1.6 0.00 0.00 0.00 50 1018.4
20260507002254 13 250 1.6 1.6 0.00 0.00 0.00 48 1018.2
20260507001751 13 282 1.6 1.6 0.00 0.00 0.00 49 1017.9
20260507001248 13 280 1.6 1.6 0.00 0.00 0.00 48 1017.8
20260507000744 14 311 0.0 0.0 0.00 0.00 0.00 50 1017.7
20260507000240 14 197 1.6 1.6 0.00 0.00 0.00 49 1017.7
20260506235737 14 42 4.8 8.0 0.00 0.00 0.00 49 1017.8
20260506235232 15 288 0.0 1.6 0.00 0.00 0.00 49 1017.9
20260506234730 15 233 0.0 0.0 0.00 0.00 0.00 49 1017.9
20260506234227 15 60 6.4 11.3 0.00 0.00 0.00 47 1017.9
20260506233724 15 27 4.8 9.7 0.00 0.00 0.00 46 1017.6
20260506233221 15 241 1.6 1.6 0.00 0.00 0.00 48 1017.6
20260506232717 15 83 4.8 8.0 0.00 0.00 0.00 47 1017.4
20260506232212 15 69 8.0 12.9 0.00 0.00 0.00 46 1017.8
20260506231710 15 228 0.0 1.6 0.00 0.00 0.00 47 1017.7
20260506231209 15 247 1.6 1.6 0.00 0.00 0.00 49 1017.6
20260506230704 15 97 3.2 4.8 0.00 0.00 0.00 48 1017.5
20260506230202 15 169 1.6 3.2 0.00 0.00 0.00 48 1017.7
20260506225658 15 35 9.7 14.5 0.00 0.00 0.00 47 1017.3
20260506225155 15 43 6.4 9.7 0.00 0.00 0.00 47 1017.5
20260506224651 16 61 6.4 9.7 0.00 0.00 0.00 46 1017.7
20260506224148 16 33 6.4 9.7 0.00 0.00 0.00 46 1017.7
20260506223645 15 240 0.0 1.6 0.00 0.00 0.00 50 1017.8
20260506223140 15 61 3.2 4.8 0.00 0.00 0.00 48 1017.6
20260506222638 15 48 3.2 3.2 0.00 0.00 0.00 47 1017.7
20260506222133 16 27 9.7 11.3 0.00 0.00 0.00 46 1017.7
20260506221632 15 0 4.8 4.8 0.00 0.00 0.00 46 1017.7
20260506221130 16 62 8.0 11.3 0.00 0.00 0.00 46 1017.7
20260506220626 15 33 3.2 4.8 0.00 0.00 0.00 47 1017.8
20260506220121 15 36 3.2 8.0 0.00 0.00 0.00 47 1017.6
20260506215618 15 57 3.2 4.8 0.00 0.00 0.00 47 1017.7
20260506215113 15 77 6.4 8.0 0.00 0.00 0.00 46 1017.8
20260506214611 16 72 8.0 11.3 0.00 0.00 0.00 45 1017.5
20260506214108 16 164 1.6 1.6 0.00 0.00 0.00 47 1017.8
20260506213606 15 78 4.8 4.8 0.00 0.00 0.00 45 1017.8
20260506213103 16 354 1.6 3.2 0.00 0.00 0.00 45 1017.8
20260506212600 15 358 4.8 4.8 0.00 0.00 0.00 48 1017.9
20260506212054 16 31 4.8 9.7 0.00 0.00 0.00 45 1018.1
20260506211551 16 36 3.2 3.2 0.00 0.00 0.00 47 1018.1
20260506211048 16 34 4.8 4.8 0.00 0.00 0.00 47 1017.9
20260506210544 16 91 6.4 8.0 0.00 0.00 0.00 45 1017.8
20260506210041 16 77 8.0 11.3 0.00 0.00 0.00 44 1017.8
20260506205538 16 282 0.0 1.6 0.00 0.00 0.00 48 1018.1
20260506205033 16 129 3.2 4.8 0.00 0.00 0.00 47 1017.8
20260506204531 16 36 8.0 14.5 0.00 0.00 0.00 47 1018.1
20260506204028 16 182 1.6 3.2 0.00 0.00 0.00 48 1018.3
20260506203527 16 286 3.2 8.0 0.00 0.00 0.00 49 1017.9
20260506203022 15 70 8.0 12.9 0.00 0.00 0.00 49 1018.2
20260506202520 15 89 8.0 9.7 0.00 0.00 0.00 47 1018.2
20260506202016 15 62 4.8 8.0 0.00 0.00 0.00 46 1018.5
20260506201514 15 60 4.8 11.3 0.00 0.00 0.00 48 1018.3
20260506201010 15 86 4.8 11.3 0.00 0.00 0.00 48 1018.6
20260506200507 15 74 6.4 9.7 0.00 0.00 0.00 47 1018.5
20260506200004 15 240 1.6 3.2 0.00 0.00 0.00 49 1018.7
20260506195501 15 125 4.8 8.0 0.00 0.00 0.00 51 1018.7
20260506194956 16 55 8.0 11.3 0.00 0.00 0.00 48 1018.6
20260506194454 16 59 1.6 3.2 0.00 0.00 0.00 51 1018.9
20260506193950 15 79 1.6 3.2 0.00 0.00 0.00 45 1018.7
20260506193448 15 29 1.6 3.2 0.00 0.00 0.00 50 1019.0
20260506192944 15 348 3.2 3.2 0.00 0.00 0.00 50 1018.8
20260506192442 16 275 1.6 3.2 0.00 0.00 0.00 48 1019.1
20260506191938 15 197 1.6 3.2 0.00 0.00 0.00 48 1019.0
20260506191435 16 81 4.8 4.8 0.00 0.00 0.00 46 1019.3
20260506190931 16 14 8.0 11.3 0.00 0.00 0.00 47 1019.3
20260506190428 15 93 3.2 4.8 0.00 0.00 0.00 50 1019.4
20260506185925 16 43 1.6 3.2 0.00 0.00 0.00 49 1019.5
20260506185422 16 256 3.2 3.2 0.00 0.00 0.00 49 1019.2
20260506184919 16 255 1.6 3.2 0.00 0.00 0.00 48 1019.4
20260506184416 15 236 1.6 1.6 0.00 0.00 0.00 50 1019.4
20260506183914 16 58 0.0 1.6 0.00 0.00 0.00 50 1019.6
20260506183408 16 26 1.6 1.6 0.00 0.00 0.00 47 1019.5
20260506182906 16 108 3.2 4.8 0.00 0.00 0.00 49 1019.4
20260506182403 15 265 4.8 8.0 0.00 0.00 0.00 50 1019.5
20260506181900 15 241 3.2 4.8 0.00 0.00 0.00 53 1019.5
20260506181358 15 76 8.0 11.3 0.00 0.00 0.00 49 1019.4
20260506180855 15 23 4.8 4.8 0.00 0.00 0.00 54 1019.6
20260506180351 15 111 4.8 8.0 0.00 0.00 0.00 50 1019.7
20260506175848 15 246 3.2 3.2 0.00 0.00 0.00 52 1019.9
20260506175344 14 207 4.8 8.0 0.00 0.00 0.00 53 1019.8
20260506174841 15 176 0.0 1.6 0.00 0.00 0.00 54 1019.9
20260506174339 15 83 6.4 8.0 0.00 0.00 0.00 53 1020.1
20260506173837 15 188 3.2 4.8 0.00 0.00 0.00 53 1019.9
20260506173333 15 78 6.4 9.7 0.00 0.00 0.00 53 1020.0
20260506172830 15 32 4.8 4.8 0.00 0.00 0.00 55 1019.8
20260506172327 13 63 4.8 4.8 0.00 0.00 0.00 53 1019.9
20260506171824 13 41 6.4 8.0 0.00 0.00 0.00 55 1019.9
20260506171321 13 92 11.3 16.1 0.00 0.00 0.00 53 1020.0
20260506170819 13 79 11.3 14.5 0.00 0.00 0.00 52 1020.0
20260506170315 14 240 1.6 1.6 0.00 0.00 0.00 57 1020.1
20260506165814 14 344 1.6 3.2 0.00 0.00 0.00 59 1019.9
20260506165311 13 210 1.6 3.2 0.00 0.00 0.00 57 1020.0
20260506164808 13 72 4.8 8.0 0.00 0.00 0.00 57 1019.8
20260506164304 14 139 1.6 3.2 0.00 0.00 0.00 59 1019.5
20260506163801 13 54 0.0 1.6 0.00 0.00 0.00 64 1019.3
20260506163256 13 85 4.8 4.8 0.00 0.00 0.00 62 1019.4
20260506162752 12 58 8.0 9.7 0.00 0.00 0.00 61 1019.3
20260506162250 12 2 4.8 11.3 0.00 0.00 0.00 63 1019.2
20260506161747 12 64 8.0 9.7 0.00 0.00 0.00 63 1019.2
20260506161245 12 241 1.6 3.2 0.00 0.00 0.00 66 1019.2
20260506160742 12 62 6.4 9.7 0.00 0.00 0.00 68 1019.0
20260506160238 12 55 3.2 4.8 0.00 0.00 0.00 66 1019.4
20260506155737 12 224 0.0 0.0 0.00 0.00 0.00 69 1019.2
20260506155233 12 87 3.2 4.8 0.00 0.00 0.00 65 1019.3
20260506153341 12 43 0.0 1.6 0.00 0.00 0.00 66 1019.1
20260506152837 12 29 6.4 11.3 0.00 0.00 0.00 67 1018.9
20260506152335 12 82 4.8 4.8 0.00 0.00 0.00 68 1018.7
20260506151833 11 14 3.2 3.2 0.00 0.00 0.00 71 1018.9
20260506151330 11 72 4.8 11.3 0.00 0.00 0.00 71 1018.8
20260506150827 11 70 3.2 4.8 0.00 0.00 0.00 71 1019.0
20260506150324 11 31 3.2 4.8 0.00 0.00 0.00 70 1019.0
20260506145820 11 7 1.6 3.2 0.00 0.00 0.00 73 1019.0
20260506145317 11 223 1.6 1.6 0.00 0.00 0.00 72 1019.0
20260506144815 11 229 0.0 0.0 0.00 0.00 0.00 72 1019.2
20260506144311 11 55 1.6 1.6 0.00 0.00 0.00 71 1018.9
20260506143809 11 236 0.0 0.0 0.00 0.00 0.00 74 1019.0
20260506143306 11 243 0.0 0.0 0.00 0.00 0.00 77 1018.9
20260506142804 10 87 1.6 1.6 0.00 0.00 0.00 76 1019.0
20260506142305 10 245 0.0 1.6 0.00 0.00 0.00 76 1018.9
20260506141800 11 336 1.6 3.2 0.00 0.00 0.00 78 1019.0
20260506141258 10 354 0.0 1.6 0.00 0.00 0.00 78 1019.0
20260506140755 10 43 1.6 1.6 0.00 0.00 0.00 78 1018.9
20260506140252 10 84 4.8 4.8 0.00 0.00 0.00 78 1018.7
20260506135749 10 80 1.6 3.2 0.00 0.00 0.00 79 1018.6
20260506135245 9 34 4.8 8.0 0.00 0.00 0.00 82 1018.5